Weather History for Thermal, CA

Change the Weather History Date:

Friday, March 7, 2014

  Actual Average Record
Temperature  
Mean Temperature 76 °F 62 °F  
Max Temperature 86 °F 79 °F 94 °F (1972)
Min Temperature 65 °F 46 °F 33 °F (1971)
Degree Days  
Heating Degree Days 0 4  
Month to date heating degree days 15 31  
Since 1 July heating degree days 804 1096  
Cooling Degree Days 11 1  
Month to date cooling degree days 24 7  
Year to date cooling degree days 34 19  
Growing Degree Days 24 (Base 50)    
Moisture  
Dew Point 31 °F    
Average Humidity 33    
Maximum Humidity 56    
Minimum Humidity 9    
Precipitation  
Precipitation 0.00 in 0.02 in 0.51 in (1994)
Month to date precipitation T 0.14  
Year to date precipitation 0.08 1.47  
Since 1 July precipitation 1.55 2.85  
Snow  
Snow 0.00 in - - ()
Month to date snowfall 0.0  
Year to date snowfall 0.0  
Since 1 July snowfall 0.0  
Snow Depth 0.00 in    
Sea Level Pressure  
Sea Level Pressure 29.88 in    
Wind  
Wind Speed 13 mph (NW)    
Max Wind Speed 23 mph    
Max Gust Speed 30 mph    
Visibility 10 miles    
Events      
T = Trace of Precipitation, MM = Missing Value Source: NWS Daily Summary

Daily Weather History Graph

Daily Weather History Graph

Search for Another Location

Airport:

Trip Planner

Search our weather history database for the weather conditions in past years. The results will help you decide how hot, cold, wet, or windy it might be!

Date:

Astronomy

Mar. 07, 2014 Rise Set
Actual Time 6:05 AM PST 5:46 PM PST
Civil Twilight 5:40 AM PST 6:11 PM PST
Nautical Twilight 5:11 AM PST 6:40 PM PST
Astronomical Twilight 4:42 AM PST 7:08 PM PST
Moon 10:19 AM PST (3/7) No Moon Set
Length of Visible Light 12h 30m
Length of Day
11h 40m
Waxing Crescent, 43% of the Moon is Illuminated
Mar 7
Waxing Crescent
Mar 8
First Quarter
Mar 16
Full
Mar 23
Last Quarter
Mar 30
New

Hourly Weather History & Observations

Time (PST) Temp. Dew Point Humidity Pressure Visibility Wind Dir Wind Speed Gust Speed Precip Events Conditions
12:52 AM 72.0 °F 51.1 °F 48% 29.81 in 10.0 mi NNW 21.9 mph - N/A   Clear
1:52 AM 71.1 °F 51.1 °F 49% 29.78 in 10.0 mi NW 17.3 mph 24.2 mph N/A   Clear
2:52 AM 70.0 °F 50.0 °F 49% 29.80 in 9.0 mi NW 17.3 mph 27.6 mph N/A   Clear
3:52 AM 68.0 °F 51.1 °F 55% 29.84 in 7.0 mi WNW 17.3 mph 26.5 mph N/A   Clear
4:52 AM 66.0 °F 50.0 °F 56% 29.84 in 9.0 mi WNW 10.4 mph - N/A   Clear
5:52 AM 66.0 °F 48.9 °F 54% 29.86 in 10.0 mi NW 11.5 mph - N/A   Clear
6:52 AM 64.9 °F 48.0 °F 54% 29.89 in 10.0 mi Variable 3.5 mph - N/A   Clear
7:52 AM 73.9 °F 37.0 °F 26% 29.91 in 10.0 mi NW 5.8 mph - N/A   Clear
8:52 AM 78.1 °F 36.0 °F 22% 29.92 in 10.0 mi NW 17.3 mph - N/A   Clear
9:52 AM 80.1 °F 30.9 °F 17% 29.92 in 10.0 mi WNW 11.5 mph - N/A   Clear
10:52 AM 82.0 °F 28.0 °F 14% 29.92 in 10.0 mi NW 15.0 mph 20.7 mph N/A   Clear
11:52 AM 84.9 °F 26.1 °F 12% 29.90 in 10.0 mi WNW 9.2 mph 18.4 mph N/A   Clear
12:52 PM 84.0 °F 23.0 °F 11% 29.90 in 10.0 mi NW 9.2 mph 18.4 mph N/A   Clear
1:52 PM 84.9 °F 23.0 °F 10% 29.87 in 10.0 mi NNW 12.7 mph - N/A   Clear
2:52 PM 84.0 °F 19.9 °F 9% 29.83 in 10.0 mi NNW 9.2 mph - N/A   Clear
3:52 PM 84.0 °F 17.1 °F 8% 29.83 in 10.0 mi NNE 9.2 mph - N/A   Clear
4:52 PM 82.9 °F 18.0 °F 9% 29.84 in 10.0 mi North 11.5 mph - N/A   Clear
5:52 PM 75.9 °F 18.0 °F 11% 29.87 in 10.0 mi North 6.9 mph - N/A   Clear
6:52 PM 73.9 °F 21.0 °F 14% 29.89 in 10.0 mi WNW 8.1 mph - N/A   Clear
7:52 PM 72.0 °F 19.9 °F 14% 29.92 in 10.0 mi WNW 10.4 mph - N/A   Clear
8:52 PM 72.0 °F 19.9 °F 14% 29.94 in 10.0 mi WNW 8.1 mph - N/A   Clear
9:52 PM 69.1 °F 21.9 °F 17% 29.95 in 10.0 mi Variable 4.6 mph - N/A   Clear
10:52 PM 64.0 °F 23.0 °F 21% 29.95 in 10.0 mi NW 6.9 mph - N/A   Clear
11:52 PM 64.9 °F 21.9 °F 19% 29.95 in 10.0 mi North 6.9 mph - N/A   Clear